Weather History for PAJZ - March, 2014

Change the Weather History Date:

Tuesday, March 11, 2014

  Actual Average Record
Temperature  
Mean Temperature 16 °F -  
Max Temperature 23 °F - - ()
Min Temperature 10 °F - - ()
Degree Days  
Heating Degree Days 48    
Moisture  
Dew Point 13 °F    
Average Humidity 85    
Maximum Humidity 93    
Minimum Humidity 71    
Precipitation  
Precipitation 0.02 in - - ()
Sea Level Pressure  
Sea Level Pressure 29.05 in    
Wind  
Wind Speed 9 mph (WNW)    
Max Wind Speed 20 mph    
Max Gust Speed -    
Visibility 5 miles    
Events      
Averages and records for this station are not official NWS values.
T = Trace of Precipitation, MM = Missing Value Source: NWS Daily Summary

Daily Weather History Graph

Daily Weather History Graph

Search for Another Location

Airport or City:

Trip Planner

Search our weather history database for the weather conditions in past years. The results will help you decide how hot, cold, wet, or windy it might be!

Date:

Astronomy

Mar. 11, 2014 Rise Set
Actual Time 8:56 AM AKDT 8:22 PM AKDT
Civil Twilight 8:15 AM AKDT 9:03 PM AKDT
Nautical Twilight 7:27 AM AKDT 9:51 PM AKDT
Astronomical Twilight 6:37 AM AKDT 10:42 PM AKDT
Moon 3:17 PM AKDT (3/11) 6:51 AM AKDT (3/11)
Length of Visible Light 12h 47m
Length of Day
11h 25m
Waxing Gibbous, 79% of the Moon is Illuminated
Mar 11
Waxing Gibbous
Mar 16
Full
Mar 23
Last Quarter
Mar 30
New
Apr 7
First Quarter

Hourly Weather History & Observations

Time (AKDT) Temp. Windchill Dew Point Humidity Pressure Visibility Wind Dir Wind Speed Gust Speed Precip Events Conditions
12:03 AM 12.2 °F -1.0 °F 8.6 °F 85% 28.93 in 1.5 mi NW 10.4 mph - N/A   Overcast
12:10 AM 12.2 °F -1.0 °F 8.6 °F 85% 28.93 in 1.2 mi NNW 10.4 mph - N/A   Overcast
12:23 AM 12.2 °F -0.2 °F 8.6 °F 85% 28.93 in 1.5 mi NNW 9.2 mph - N/A   Overcast
12:38 AM 12.2 °F -1.0 °F 8.6 °F 85% 28.93 in 2.0 mi NW 10.4 mph - N/A   Overcast
12:45 AM 10.4 °F -4.1 °F 8.6 °F 92% 28.94 in 2.0 mi NNW 11.5 mph - N/A   Overcast
12:56 AM 10.4 °F -2.4 °F 8.6 °F 92% 28.94 in 1.8 mi NNW 9.2 mph - N/A   Overcast
1:04 AM 12.2 °F 0.7 °F 8.6 °F 85% 28.94 in 2.0 mi NNW 8.1 mph - N/A   Overcast
1:11 AM 12.2 °F 0.7 °F 8.6 °F 85% 28.94 in 2.0 mi NW 8.1 mph - N/A   Overcast
1:39 AM 12.2 °F -1.0 °F 8.6 °F 85% 28.94 in 2.0 mi NNW 10.4 mph - N/A   Overcast
1:56 AM 12.0 °F 0.5 °F 8.1 °F 84% 28.93 in 5.0 mi NW 8.1 mph - N/A   Overcast
2:56 AM 12.0 °F 0.5 °F 8.1 °F 84% 28.94 in 10.0 mi NW 8.1 mph - N/A   Overcast
3:56 AM 12.2 °F -1.0 °F 8.6 °F 85% 28.96 in 10.0 mi NW 10.4 mph - N/A   Overcast
4:56 AM 12.0 °F -1.3 °F 9.1 °F 88% 28.95 in 10.0 mi NW 10.4 mph - 0.01 in   Overcast
5:23 AM 12.2 °F 1.7 °F 10.4 °F 92% 28.96 in 10.0 mi NW 6.9 mph - N/A   Overcast
5:56 AM 12.0 °F -0.4 °F 10.0 °F 92% 28.95 in 8.0 mi NW 9.2 mph - N/A   Overcast
6:36 AM 12.2 °F 1.7 °F 10.4 °F 92% 28.97 in 3.0 mi WNW 6.9 mph - N/A   Overcast
6:49 AM 12.2 °F 0.7 °F 10.4 °F 92% 28.97 in 3.0 mi WNW 8.1 mph - N/A   Overcast
6:56 AM 12.2 °F 0.7 °F 8.6 °F 85% 28.97 in 4.0 mi NW 8.1 mph - N/A   Overcast
7:09 AM 12.2 °F -0.2 °F 8.6 °F 85% 28.97 in 6.0 mi NW 9.2 mph - N/A   Overcast
7:28 AM 12.2 °F -0.2 °F 8.6 °F 85% 28.98 in 5.0 mi NW 9.2 mph - N/A   Overcast
7:56 AM 12.0 °F -1.3 °F 9.1 °F 88% 28.96 in 7.0 mi NW 10.4 mph - N/A   Overcast
8:16 AM 12.2 °F -2.5 °F 8.6 °F 85% 28.98 in 5.0 mi NW 12.7 mph - N/A   Overcast
8:28 AM 12.2 °F -2.5 °F 8.6 °F 85% 28.98 in 7.0 mi NW 12.7 mph - N/A   Overcast
8:56 AM 12.0 °F -1.3 °F 8.1 °F 84% 28.97 in 4.0 mi NW 10.4 mph - N/A   Overcast
9:07 AM 12.2 °F -1.0 °F 8.6 °F 85% 28.99 in 1.8 mi NW 10.4 mph - N/A   Overcast
9:21 AM 12.2 °F 1.7 °F 8.6 °F 85% 28.99 in 1.8 mi NW 6.9 mph - N/A   Overcast
9:31 AM 12.2 °F 1.7 °F 8.6 °F 85% 28.99 in 2.5 mi NW 6.9 mph - N/A   Overcast
9:47 AM 12.2 °F 6.1 °F 8.6 °F 85% 29.00 in 3.0 mi WNW 3.5 mph - N/A   Mostly Cloudy
9:56 AM 12.2 °F 1.7 °F 8.6 °F 85% 29.00 in 5.0 mi WNW 6.9 mph - N/A   Mostly Cloudy
10:56 AM 15.1 °F 5.2 °F 10.0 °F 80% 29.00 in 7.0 mi WNW 6.9 mph - 0.01 in   Mostly Cloudy
11:56 AM 15.1 °F 3.3 °F 9.1 °F 77% 29.01 in 6.0 mi NW 9.2 mph - N/A   Haze
12:20 PM 15.8 °F 5.1 °F 10.4 °F 79% 29.04 in 10.0 mi NW 8.1 mph - N/A   Overcast
12:56 PM 17.6 °F 6.4 °F 10.4 °F 73% 29.05 in 10.0 mi NW 9.2 mph - N/A   Overcast
1:17 PM 17.6 °F 6.4 °F 12.2 °F 79% 29.05 in 10.0 mi NW 9.2 mph - N/A   Overcast
1:56 PM 20.1 °F 13.6 °F 12.0 °F 71% 29.05 in 10.0 mi West 4.6 mph - N/A   Overcast
2:21 PM 19.4 °F 14.3 °F 14.0 °F 80% 29.07 in 6.0 mi NW 3.5 mph - N/A   Haze
2:47 PM 21.2 °F 16.4 °F 14.0 °F 74% 29.07 in 2.5 mi NNE 3.5 mph - N/A   Haze
2:56 PM 20.1 °F 15.2 °F 14.0 °F 77% 29.05 in 3.0 mi NNE 3.5 mph - N/A   Haze
3:03 PM 19.4 °F - 14.0 °F 80% 29.07 in 3.0 mi Calm Calm - N/A   Haze
3:24 PM 19.4 °F 11.5 °F 15.8 °F 86% 29.09 in 2.5 mi South 5.8 mph - N/A   Mostly Cloudy
3:36 PM 19.4 °F 11.5 °F 15.8 °F 86% 29.09 in 1.2 mi South 5.8 mph - N/A   Overcast
3:42 PM 19.4 °F 10.4 °F 15.8 °F 86% 29.09 in 1.5 mi South 6.9 mph - N/A   Overcast
3:56 PM 19.4 °F 10.4 °F 15.8 °F 86% 29.09 in 5.0 mi South 6.9 mph - N/A   Overcast
4:56 PM 20.1 °F 13.6 °F 16.2 °F 85% 29.08 in 10.0 mi SSE 4.6 mph - N/A   Overcast
5:56 PM 21.0 °F 12.4 °F 18.1 °F 89% 29.09 in 5.0 mi South 6.9 mph - N/A   Overcast
6:19 PM 21.2 °F 10.1 °F 19.4 °F 93% 29.12 in 2.5 mi South 10.4 mph - N/A   Overcast
6:29 PM 23.0 °F 13.1 °F 19.4 °F 86% 29.12 in 3.0 mi South 9.2 mph - N/A   Overcast
6:36 PM 23.0 °F - 19.4 °F 86% 29.12 in 3.0 mi Calm Calm - N/A   Overcast
6:43 PM 23.0 °F - 19.4 °F 86% 29.12 in 2.5 mi Calm Calm - N/A   Mostly Cloudy
6:56 PM 23.0 °F - 19.4 °F 86% 29.12 in 2.0 mi Calm Calm - N/A   Mostly Cloudy
7:04 PM 23.0 °F - 19.4 °F 86% 29.12 in 1.2 mi Calm Calm - N/A   Overcast
7:13 PM 23.0 °F - 21.2 °F 93% 29.13 in 1.5 mi Calm Calm - N/A   Overcast
7:17 PM 23.0 °F - 21.2 °F 93% 29.13 in 2.0 mi Calm Calm - N/A   Overcast
7:26 PM 23.0 °F - 21.2 °F 93% 29.13 in 4.0 mi Calm Calm - N/A   Overcast
7:30 PM 23.0 °F - 19.4 °F 86% 29.13 in 2.5 mi Calm Calm - N/A   Overcast
7:37 PM 23.0 °F 12.4 °F 19.4 °F 86% 29.13 in 1.5 mi South 10.4 mph - N/A   Mostly Cloudy
7:56 PM 22.1 °F 10.0 °F 19.0 °F 88% 29.12 in 2.0 mi South 12.7 mph - N/A   Overcast
8:02 PM 21.2 °F 8.9 °F 19.4 °F 93% 29.14 in 1.5 mi South 12.7 mph - N/A   Overcast
8:20 PM 19.4 °F 9.5 °F 17.6 °F 93% 29.15 in 1.8 mi SSW 8.1 mph - N/A   Overcast
8:29 PM 19.4 °F 8.6 °F 17.6 °F 93% 29.15 in 2.5 mi SSW 9.2 mph - N/A   Overcast
8:56 PM 19.0 °F 12.3 °F 17.1 °F 92% 29.15 in 4.0 mi SSW 4.6 mph - N/A   Overcast
9:34 PM 17.6 °F 3.2 °F 14.0 °F 86% 29.18 in 10.0 mi SSW 15.0 mph - N/A   Overcast
9:56 PM 17.6 °F 5.7 °F 12.2 °F 79% 29.20 in 10.0 mi SSW 10.4 mph - N/A   Overcast
10:15 PM 15.8 °F 3.4 °F 12.2 °F 86% 29.21 in 10.0 mi SW 10.4 mph - N/A   Overcast
10:56 PM 15.1 °F -1.6 °F 10.0 °F 80% 29.21 in 10.0 mi SSW 18.4 mph - N/A   Overcast
11:22 PM 12.2 °F -4.8 °F 8.6 °F 85% 29.23 in 10.0 mi South 17.3 mph - N/A   Partly Cloudy
11:38 PM 12.2 °F -3.7 °F 8.6 °F 85% 29.23 in 10.0 mi South 15.0 mph - N/A   Mostly Cloudy
11:56 PM 13.1 °F -4.6 °F 8.1 °F 80% 29.22 in 10.0 mi South 19.6 mph - N/A   Overcast